RH
60 64 66 68 68 68 68 68 68 69 70 72 74 76 78 82 84 84 83 80 76 74 73 71 67 64 62 62 58 57 57 54 54 54 54 53 52 50 49 47 44 42
53 57 62 67 71 72 72 73 72 71 70 70 71 72 74 79 83 85 87 86 85 85 83 78 73 67 64 65 64 63 62 60 61 61 61 59 55 53 52 50 48 46
52 52 54 58 62 67 71 73 74 75 75 74 72 72 73 75 80 84 87 89 91 92 92 91 88 83 78 75 74 73 71 70 69 67 64 62 59 57 53 50 48 47
54 54 53 53 55 60 64 66 67 70 73 74 74 74 73 73 74 77 81 85 90 94 96 98 99 98 95 91 88 85 83 79 76 70 66 65 64 61 58 54 50 48
52 53 53 53 53 54 58 61 62 63 66 69 72 72 72 73 72 72 74 77 81 86 90 95 98 99 100 99 98 97 96 94 91 88 86 81 71 62 58 57 53 51
47 47 48 50 49 49 51 54 57 61 63 65 67 67 68 69 70 69 69 70 72 75 78 83 89 94 97 99 100 100 100 100 99 98 99 95 84 72 67 62 57 54
41 41 42 43 44 44 44 45 48 54 60 61 61 61 60 61 63 65 64 64 66 69 71 74 79 84 89 93 96 98 98 99 101 100 99 99 95 90 85 80 74 69
40 40 39 38 38 39 39 39 39 42 48 51 50 49 49 52 55 55 56 56 55 58 64 69 73 78 84 89 91 93 95 95 96 98 98 99 99 97 95 93 91 89
41 41 40 38 38 38 38 38 36 34 36 38 38 35 35 39 41 43 47 47 43 42 48 57 65 70 78 90 95 94 96 96 94 94 94 95 97 98 99 99 98 98
42 42 42 42 42 41 40 40 39 36 34 35 34 33 30 29 30 33 36 39 39 35 36 46 62 70 70 78 94 99 98 99 97 96 96 93 92 93 94 97 99 99
43 43 43 43 44 44 44 44 42 41 40 40 40 40 36 30 29 31 29 30 34 32 31 37 57 79 72 57 71 91 96 97 96 97 99 97 95 94 91 91 94 96
44 45 45 44 44 45 46 45 45 44 43 42 42 43 41 34 33 37 33 28 25 24 27 27 40 74 77 47 44 68 82 88 90 92 96 97 97 97 95 94 91 89
45 46 46 46 46 45 46 47 46 47 44 42 42 42 44 39 32 37 39 32 24 19 21 21 26 52 63 41 36 59 79 88 91 94 98 98 95 94 96 98 96 90
46 47 46 47 48 47 49 48 48 48 45 44 41 40 49 47 33 37 46 42 32 23 20 19 18 29 37 31 39 66 88 98 99 98 99 99 98 97 96 97 97 95
47 48 48 50 50 50 52 51 50 49 46 46 42 40 52 52 35 36 48 48 40 30 22 21 20 22 23 29 54 83 97 100 100 100 100 100 100 100 99 97 95 95
49 50 51 52 53 55 56 55 54 52 51 51 44 42 53 53 41 38 43 52 54 40 25 22 24 25 24 37 72 98 101 99 100 100 100 99 99 100 99 99 98 98
52 53 55 56 57 60 61 61 59 54 55 56 47 48 56 53 47 46 46 58 65 49 32 27 27 27 29 48 82 100 99 100 100 99 100 100 99 100 100 100 100 100
54 57 60 61 63 65 66 67 65 58 59 59 51 54 60 57 55 55 55 64 67 52 40 35 32 30 33 56 88 100 99 100 100 99 100 100 98 99 100 99 98 99
56 59 62 62 65 67 69 71 70 65 65 64 59 59 62 62 62 62 63 69 68 62 58 50 40 31 36 68 98 101 99 100 100 100 100 100 100 100 99 98 96 96
58 60 61 63 66 68 71 74 72 69 69 67 65 64 66 69 70 66 65 67 70 76 78 71 55 37 45 84 104 99 99 101 99 100 100 99 101 100 98 98 96 97
62 62 63 67 72 76 80 81 77 75 75 71 66 67 72 76 75 69 66 67 73 80 79 77 67 49 57 92 105 98 100 102 98 100 101 99 101 100 95 92 90 94
65 64 67 74 83 89 91 89 84 82 80 75 73 77 79 78 74 72 74 77 83 85 80 76 69 54 57 83 100 101 100 100 100 100 99 99 100 97 93 91 90 91
66 66 73 81 87 91 93 93 89 85 82 83 86 86 83 81 80 78 80 85 91 93 87 79 72 63 58 70 90 102 100 99 100 100 99 100 98 94 94 95 94 94
65 67 75 82 84 83 86 88 85 84 87 90 90 88 88 87 84 79 79 87 94 92 82 73 71 70 66 72 90 102 101 99 100 100 100 99 95 93 92 90 88 87
67 71 74 76 77 76 79 82 84 87 90 88 86 88 91 88 83 81 86 90 88 77 66 66 73 74 73 82 97 102 99 100 101 100 100 99 96 93 89 85 83 80
77 77 75 75 77 79 81 85 87 88 87 86 87 89 90 89 88 91 92 87 77 69 66 70 76 76 78 89 101 102 99 100 101 100 100 101 98 94 90 88 87 84
Wind_Speed
28 27 26 27 26 26 25 24 24 23 22 21 20 20 19 17 15 13 13 10 7 6 5 3 1 3 5 5 6 7 7 8 9 10 11 13 14 16 16 17 19 20
28 27 27 27 27 26 26 25 25 24 23 22 21 19 17 16 15 14 15 14 11 9 8 6 3 1 3 4 5 6 7 7 7 8 10 11 11 13 15 17 18 19
28 28 28 27 26 26 26 25 25 25 24 22 21 21 19 17 16 14 14 15 15 14 12 11 7 4 1 2 3 5 6 7 8 8 8 9 10 11 13 15 17 18
29 29 29 27 27 27 26 26 26 26 25 24 23 22 21 19 18 16 14 14 13 13 12 10 9 7 5 2 1 3 4 6 8 9 9 9 8 9 11 13 15 16
30 30 29 28 28 28 27 27 27 25 25 25 24 23 22 22 21 20 18 16 15 13 11 9 8 7 6 5 4 2 2 3 5 7 9 10 9 8 8 10 12 13
29 29 29 29 29 29 30 29 27 26 25 24 24 24 23 23 22 22 20 19 17 16 14 13 11 9 8 6 6 5 5 4 4 5 6 8 9 10 9 10 11 11
26 27 28 29 29 29 29 29 28 26 25 24 23 23 23 23 22 22 21 19 19 18 17 15 14 14 12 9 8 6 5 5 5 5 6 6 7 9 10 11 13 13
24 24 26 28 28 28 28 28 28 27 25 25 25 24 23 23 22 22 20 20 19 19 18 17 16 15 14 13 12 10 8 7 6 5 5 5 5 6 8 9 12 14
23 23 24 26 27 27 27 27 27 27 26 26 26 25 24 23 22 22 21 20 20 20 19 18 17 16 14 13 13 13 11 10 8 7 6 6 5 5 5 6 8 10
22 22 23 24 24 25 26 25 25 25 25 25 25 25 24 23 23 22 21 20 20 20 19 18 17 16 14 12 12 12 11 10 9 9 9 8 7 7 6 6 7 7
21 21 22 22 22 22 23 23 23 24 24 24 24 24 24 24 23 22 22 21 20 20 19 17 16 15 14 12 11 11 10 10 9 9 8 8 8 8 8 8 8 8
19 20 20 21 20 21 21 21 22 23 24 24 24 23 23 24 24 22 21 21 20 19 19 17 15 14 13 13 12 11 11 10 10 9 9 8 7 7 8 8 9 9
17 17 18 18 18 18 19 20 21 22 22 23 23 23 22 23 24 23 21 21 21 20 19 18 15 13 13 14 13 13 13 13 12 11 11 10 9 8 7 8 9 9
14 14 15 15 15 16 17 18 19 20 20 21 22 22 20 20 23 22 19 19 20 20 20 18 16 14 14 15 15 15 15 15 14 13 13 12 12 10 9 8 9 10
12 12 13 13 13 15 16 17 18 18 19 19 21 22 18 18 22 21 18 18 19 20 20 20 17 15 14 14 15 16 16 15 14 14 14 13 13 12 11 11 11 11
11 11 12 12 13 14 14 16 17 18 19 19 21 22 18 18 22 21 18 18 18 19 21 20 18 16 14 13 14 16 16 15 15 15 14 13 13 13 13 13 12 11
10 10 12 12 13 13 14 15 17 19 19 19 22 21 18 19 22 21 19 17 17 20 22 20 18 17 15 14 14 15 15 15 15 15 14 13 12 13 13 12 10 9
10 10 12 13 13 13 13 14 17 19 19 19 22 21 19 20 21 20 18 17 17 21 22 20 18 17 15 14 15 16 16 15 15 16 15 14 13 13 14 13 12 11
10 11 12 13 13 13 14 14 17 19 18 19 21 20 19 20 20 19 18 17 19 21 20 19 19 17 15 15 16 16 16 16 16 16 16 15 15 14 15 15 15 14
10 12 13 14 14 14 14 14 17 19 18 19 20 20 19 19 19 19 19 19 19 19 18 19 19 17 15 16 17 17 16 16 17 16 16 15 15 14 14 14 14 14
11 14 15 15 14 14 14 15 17 19 18 19 20 19 18 17 18 20 20 20 19 18 19 20 20 19 17 16 17 17 16 16 16 15 15 15 14 14 15 15 15 15
13 15 15 15 14 13 14 15 17 18 18 19 19 18 17 17 19 20 19 19 18 17 18 20 21 21 19 17 17 17 17 17 16 16 15 15 15 15 14 15 15 15
13 15 14 13 13 14 15 16 17 18 19 18 17 18 18 18 19 19 18 18 16 16 18 21 22 21 19 18 17 17 17 17 17 16 16 15 15 14 13 13 12 12
16 16 14 14 15 16 18 19 20 20 19 17 17 19 19 18 19 20 19 16 15 17 20 23 22 20 19 18 17 16 16 16 17 16 16 15 15 14 14 14 13 12
17 16 16 17 19 20 20 20 20 20 18 18 18 19 19 19 20 20 18 17 18 21 22 22 21 20 19 18 17 16 15 16 16 16 16 15 15 15 15 15 15 15
15 16 18 20 21 21 20 20 19 19 19 20 20 19 20 20 19 18 19 20 22 22 20 19 19 20 19 17 16 15 15 15 15 15 15 15 15 15 16 16 16 16
Wind_Direction
59 60 61 63 63 62 63 61 61 62 62 60 57 56 56 59 64 68 65 61 49 32 27 18 312 241 242 242 237 232 231 235 239 241 242 241 237 234 234 236 238 239
58 57 57 59 60 60 61 60 59 59 57 55 54 53 54 57 62 67 71 74 70 54 43 39 43 228 240 243 242 235 228 232 238 242 247 250 248 245 243 242 242 242
59 59 58 56 56 57 59 59 58 55 53 53 52 51 50 50 54 61 66 73 76 74 69 63 57 48 356 266 262 254 241 238 237 237 243 250 252 250 247 247 246 244
57 59 59 58 58 58 59 59 56 52 50 50 49 48 49 48 49 53 55 59 64 68 72 71 64 58 52 40 314 261 248 241 238 236 239 248 255 257 253 250 252 252
57 59 59 59 59 58 57 57 55 50 48 47 45 45 46 47 47 48 48 48 49 50 52 53 50 49 47 47 46 22 316 273 259 250 246 241 236 241 246 246 248 251
56 57 58 58 58 57 55 54 53 51 47 43 42 42 43 44 44 45 45 45 46 46 46 45 42 39 36 38 40 35 26 2 331 307 287 265 244 237 237 238 240 238
54 54 55 56 57 55 54 52 52 51 48 44 42 40 40 42 41 41 41 42 44 44 43 44 44 41 37 35 33 29 24 16 2 345 332 318 292 273 261 254 252 250
54 53 53 54 54 53 51 50 49 49 48 47 43 39 40 41 39 38 37 36 38 39 40 41 42 42 40 39 37 30 23 14 4 354 348 343 329 312 296 282 273 267
54 52 52 52 51 50 49 47 46 46 46 46 43 40 40 40 39 38 36 34 33 33 34 35 35 35 36 39 38 32 28 20 11 4 351 338 328 318 310 301 289 280
53 51 50 50 48 47 46 45 43 42 41 41 40 37 36 36 35 34 32 31 29 28 29 30 30 26 24 29 33 28 24 18 16 18 7 354 339 317 301 291 288 286
50 49 48 47 45 43 42 40 39 37 36 35 34 32 31 30 29 28 26 25 24 21 21 23 27 22 11 13 20 18 14 8 7 9 4 1 356 341 323 302 288 283
48 46 45 44 43 41 38 35 34 33 31 30 29 27 25 24 23 22 20 19 17 15 13 13 19 18 4 1 5 4 2 360 357 354 349 344 342 342 339 322 301 285
48 46 44 43 41 38 35 32 30 28 25 24 23 22 20 18 17 15 12 11 9 7 7 5 8 8 356 352 357 358 357 354 349 345 340 331 323 319 323 322 312 300
49 45 43 42 38 34 31 28 26 23 20 18 16 16 16 12 11 10 5 2 1 0 360 358 358 357 350 348 351 352 352 349 343 338 332 327 324 318 310 304 302 299
45 42 39 35 30 28 25 22 20 16 13 12 10 11 10 2 2 5 1 354 351 352 353 352 352 351 346 346 347 345 343 341 337 333 329 324 319 314 306 298 295 294
37 34 32 26 21 18 14 13 12 8 6 4 2 4 3 353 353 357 356 350 344 343 346 347 346 345 343 342 341 338 335 334 331 325 320 317 314 312 308 301 297 294
29 26 24 18 12 8 3 1 360 359 359 354 353 358 354 346 347 350 351 347 337 335 340 341 339 340 339 336 334 333 331 327 323 318 312 306 306 310 312 309 301 291
23 19 15 8 2 359 354 349 349 352 352 346 347 351 345 340 342 344 344 340 330 329 333 334 335 336 335 332 331 330 329 323 315 312 309 302 297 298 301 301 299 294
18 13 5 357 352 348 344 341 343 346 345 340 341 342 337 335 336 336 337 331 324 326 329 328 331 334 332 330 328 326 326 322 313 307 304 300 295 292 292 292 293 294
10 1 354 346 339 336 334 332 335 338 336 334 335 334 331 330 330 329 329 325 323 325 323 322 326 331 331 327 324 324 324 320 313 307 303 299 294 291 288 286 287 289
357 349 344 337 331 329 327 326 329 332 330 327 327 326 324 323 321 321 321 322 322 320 317 317 322 328 329 323 320 322 321 317 312 309 306 301 296 293 288 284 282 281
348 342 337 333 331 328 325 324 327 325 322 321 321 320 318 315 314 317 318 317 316 314 314 316 319 323 324 321 318 319 318 316 312 310 308 303 299 298 294 288 283 279
344 339 334 331 329 326 323 322 321 319 319 319 317 314 313 313 313 315 316 314 310 307 309 311 314 317 318 317 317 316 315 314 312 309 307 304 301 299 296 292 287 283
339 335 330 326 322 320 318 315 315 317 317 315 312 311 310 310 310 311 311 308 301 299 304 308 309 312 314 314 312 312 312 312 311 309 305 302 301 299 296 294 291 288
332 327 321 318 315 312 311 310 311 312 310 308 308 306 303 302 305 307 304 297 294 299 306 309 309 311 313 310 307 307 309 310 310 308 304 302 301 299 297 296 291 287
318 312 309 308 307 306 306 305 305 304 303 302 301 298 297 298 300 300 295 293 297 304 309 310 309 310 312 309 304 304 307 310 309 305 303 304 304 303 301 298 294 292